This is the latest recevied weather packets stored in our database for station/object N5PRN. If no packets are shown the sender has not sent any weather packets the latest 1 day(s).
| Time | Temp. | Humidity | Pressure | Rain* | Wind** | Luminosity | Snow |
|---|---|---|---|---|---|---|---|
| 1778001345 | 23.89° C | 86% | 1010.5 hPa | 0 mm | 0.45 m/s, 199° | 101 W/m² | - |
| 1778001042 | 23.89° C | 86% | 1010.5 hPa | 0 mm | 0.45 m/s, 226° | 84 W/m² | - |
| 1778000739 | 23.89° C | 85% | 1010.4 hPa | 0 mm | 0.89 m/s, 204° | 92 W/m² | - |
| 1778000436 | 23.89° C | 86% | 1010.4 hPa | 0 mm | 0 m/s | 157 W/m² | - |
| 1778000131 | 23.89° C | 85% | 1010.3 hPa | 0 mm | 0.45 m/s, 246° | 150 W/m² | - |
| 1777999827 | 23.89° C | 85% | 1010.6 hPa | 0 mm | 2.24 m/s, 195° | 99 W/m² | - |
| 1777999522 | 24.44° C | 84% | 1010.5 hPa | 0 mm | 0.89 m/s, 188° | 104 W/m² | - |
| 1777999220 | 23.89° C | 84% | 1010.3 hPa | 0 mm | 1.79 m/s, 222° | 221 W/m² | - |
| 1777998919 | 23.89° C | 84% | 1010.4 hPa | 0 mm | 0.89 m/s, 195° | 233 W/m² | - |
| 1777998615 | 23.89° C | 84% | 1010.3 hPa | 0 mm | 1.34 m/s, 219° | 268 W/m² | - |
| 1777998309 | 23.89° C | 85% | 1010.3 hPa | 0 mm | 0.89 m/s, 197° | 260 W/m² | - |
| 1777998006 | 23.89° C | 85% | 1010.3 hPa | 0 mm | 1.79 m/s, 235° | 205 W/m² | - |
| 1777997702 | 23.33° C | 85% | 1010.3 hPa | 0 mm | 1.34 m/s, 189° | 314 W/m² | - |
| 1777997400 | 23.33° C | 85% | 1010.4 hPa | 0 mm | 2.68 m/s, 146° | 267 W/m² | - |
| 1777997098 | 23.33° C | 86% | 1010.5 hPa | 0 mm | 2.24 m/s, 247° | 315 W/m² | - |
| 1777996794 | 22.78° C | 86% | 1010.6 hPa | 0 mm | 0 m/s | 235 W/m² | - |
| 1777996490 | 22.78° C | 87% | 1010.5 hPa | 0 mm | 1.34 m/s, 218° | 229 W/m² | - |
| 1777996187 | 22.78° C | 86% | 1010.5 hPa | 0 mm | 1.79 m/s, 242° | 210 W/m² | - |
| 1777995884 | 22.78° C | 87% | 1010.5 hPa | 0 mm | 1.34 m/s, 170° | 318 W/m² | - |
| 1777995580 | 22.78° C | 87% | 1010.6 hPa | 0 mm | 2.68 m/s, 235° | 184 W/m² | - |
| 1777995278 | 22.22° C | 87% | 1010.6 hPa | 0 mm | 1.34 m/s, 227° | 247 W/m² | - |
| 1777994974 | 22.22° C | 87% | 1010.4 hPa | 0 mm | 0.89 m/s, 196° | 238 W/m² | - |
| 1777994671 | 22.22° C | 88% | 1010.5 hPa | 0 mm | 0.45 m/s, 219° | 273 W/m² | - |
| 1777994366 | 21.67° C | 88% | 1010.8 hPa | 0 mm | 1.34 m/s, 161° | 222 W/m² | - |
| 1777994062 | 21.67° C | 88% | 1010.8 hPa | 0 mm | 0.89 m/s, 207° | 207 W/m² | - |
* Rain latest hour (hover to see other rain measurements)
** Current wind speed in m/s (hover to see current wind gust speed)